This is the latest recevied weather packets stored in our database for station/object DH0GMA. If no packets are shown the sender has not sent any weather packets the latest 1 day(s).
| Time | Temp. | Humidity | Pressure | Rain* | Wind** | Luminosity | Snow |
|---|---|---|---|---|---|---|---|
| 1778048787 | 11.67° C | 88% | 1006 hPa | 0 mm | - | - | - |
| 1778048187 | 11.67° C | 89% | 1006.1 hPa | 0 mm | - | - | - |
| 1778047587 | 11.67° C | 90% | 1006.2 hPa | 0 mm | - | - | - |
| 1778046987 | 11.11° C | 91% | 1006.3 hPa | 0 mm | - | - | - |
| 1778045188 | 10° C | 92% | 1006.1 hPa | 0 mm | - | - | - |
| 1778043388 | 9.44° C | 92% | 1006.5 hPa | 0 mm | - | - | - |
| 1778042788 | 8.89° C | 92% | 1006.5 hPa | 0 mm | - | - | - |
| 1778042188 | 8.89° C | 91% | 1006.5 hPa | 0 mm | - | - | - |
| 1778041588 | 8.89° C | 91% | 1006.6 hPa | 0 mm | - | - | - |
| 1778040988 | 9.44° C | 91% | 1006.6 hPa | 0 mm | - | - | - |
| 1778040388 | 9.44° C | 91% | 1006.9 hPa | 0 mm | - | - | - |
| 1778039187 | 10° C | 91% | 1006.9 hPa | 0 mm | - | - | - |
| 1778038587 | 10° C | 91% | 1007 hPa | 0 mm | - | - | - |
| 1778037987 | 10° C | 91% | 1007.1 hPa | 0 mm | - | - | - |
| 1778037387 | 10° C | 91% | 1007.1 hPa | 0 mm | - | - | - |
| 1778036787 | 10° C | 92% | 1007.2 hPa | 0 mm | - | - | - |
| 1778036187 | 10° C | 92% | 1007.2 hPa | 0 mm | - | - | - |
| 1778035587 | 10° C | 92% | 1007.3 hPa | 0 mm | - | - | - |
| 1778034987 | 9.44° C | 92% | 1007.5 hPa | 0 mm | - | - | - |
| 1778034388 | 9.44° C | 91% | 1007.4 hPa | 0 mm | - | - | - |
| 1778033788 | 9.44° C | 92% | 1007.6 hPa | 0 mm | - | - | - |
| 1778032588 | 9.44° C | 91% | 1007.4 hPa | 0 mm | - | - | - |
| 1778031988 | 10° C | 91% | 1007.5 hPa | 0 mm | - | - | - |
| 1778031388 | 10° C | 91% | 1007.4 hPa | 0 mm | - | - | - |
| 1778030788 | 10° C | 91% | 1007.6 hPa | 0 mm | - | - | - |
* Rain latest hour (hover to see other rain measurements)
** Current wind speed in m/s (hover to see current wind gust speed)